FREGAT DEB, 45814

Orbit data source: Space-Track

FREGAT DEB, 45814 is space debris in LEO originally from a launch on Mon, 18 Jul 2011 UTC launched from the Tyuratam Missile And Space Complex (TTMTR). Debris objects in space refer to the collection of defunct objects orbiting the Earth. Examples of debris include non-operational satellites, rocket bodies, and fragments generated from explosions, collisions, or faulty payload assembly.

Loading next visibility...
Identifier
45814, 2011-037AY
Orbit
LEO
Country
Flag of CISCIS
Related business
Manufacturer
Lavochkin
Mission
Spacecraft
Bus & Motor
Unknown
Mass
Unknown
Launch date (UTC)
2011-07-18 (15 years ago)
Launch vehicle
Unknown
Launch site
Tyuratam Missile And Space Complex (TTMTR)
Object type
Payload
Rocket body
Debris
Shape & HBR
Unknown shape, 0.1 m
Radar Cross Section
Medium (>0.1 m² and <1 m²)

Expand to show TLE details & history
Last TLE update: 1 day ago

TLE from 1 day ago
0 FREGAT DEB
1 45814U 11037AY  26254.27382410  .00021745  00000-0  14119+0 0  9994
2 45814  51.1037 343.9090 0974691 166.4536 196.4561 11.56373332261696
Epoch: 2026-09-11T06:34Z
TLE epoch observation values (Epoch: 2026-09-11T06:34:18.402Z)
Latitude
0.00005°
Longitude
-104.96718°
Altitude
2,660.531 km
Speed
6.322 km/s
True Right ascension
22h 55m 38s
True Declination
0° 00' 00"
Sunlit
Object was in full shadow at epoch
Visualization orbit readout
Latitude
Unknown
Longitude
Unknown
Altitude
Unknown
Speed
Unknown
Apparent Right ascension
Unknown
Apparent Declination
Unknown
Sunlit
N/A
Visualization observer readout
Local Sidereal Time
08:03:26
Azimuth
Unknown
Elevation
Unknown
Doppler factor
Unknown
Orbital elements
Apogee altitude
2,687.988 km
Perigee altitude
1,077.615 km
Semi-major axis
8,260.939 km
Eccentricity
0.09747
Inclination
51.1037°
RAAN
343.909°
Arg. of periapsis
166.4536°
True anomaly
193.62541°
Mean anomaly
196.4561°
Eccentric anomaly
195.00979°
Mean motion
2.89067 °/min
Orbital period
124.54 mins
BSTAR
0.14119
Loading maneuver chart data...
Computing Atmospheric mass density...
Loading historical data...
Loading historical data...
Loading historical data...
Loading historical data...
Loading historical data...
Loading historical data...
Loading historical data...

Documentation

Showing up to 5 results
|